User: anonymous   Login
Location: *
(90.0000°N, 180.0000°W)
Time: 20:56:33
(UTC+02:00)
Language:

Cosmos 1825 - Orbit

View from above orbital plane
View from above orbital plane
View from above satellite
View from above satellite

Ground track
Ground track

The orbit data is extracted from the following two-line orbital elements,

1 17566U 87024A   16270.31928157  .00001803  00000-0  86900-4 0  9997
2 17566  82.5078 191.6434 0005602  63.6254 296.5554 15.18095245613808
Epoch (UTC): 26 September 2016 07:39:45
Eccentricity: 0.0005602
inclination: 82.5078°
perigee height: 508 km
apogee height: 515 km
right ascension of ascending node: 191.6434°
argument of perigee: 63.6254°
revolutions per day: 15.18095245
mean anomaly at epoch: 296.5554°
orbit number at epoch: 61380

The dashed part of the orbit path shows where the satellite is in the earth's shadow,  

DLR